Location: Damada
(14.7329°N, 3.1761°W)
Time: 09:38:53
(UTC+00:00)

Cosmos 1340 - Pass Details

Date: 18 February 2020
Orbit: 502 x 505 km, 81.2° (Epoch: 09 April)

Event Time Altitude Azimuth Distance (km) Brightness Sun altitude
Rises 19:07:02 0° 176° (S) 2,593 6.3 -12.5°
Reaches altitude 10° 19:09:12 10° 171° (S) 1,709 5.3 -13.1°
Maximum altitude 19:12:50 51° 95° (E) 639 2.7 -13.9°
Drops below altitude 10° 19:16:29 10° 18° (NNE) 1,709 5.1 -14.8°
Enters shadow 19:18:14 - 14° (NNE) 2,427 5.9 -15.2°
